Location: Anumalkud?ru
(16.4847°N, 80.6636°E)
Time: 11:51:17
(UTC+00:00)

Meteor 1-22 Rocket - Pass Details

Date: 11 April 2026
Orbit: 786 x 939 km, 81.2° (Epoch: 21 May)

Event Time Altitude Azimuth Distance (km) Brightness Sun altitude
Rises 13:40:40 0° 189° (S) 3,297 7.3 -12.3°
Reaches altitude 10° 13:43:00 10° 191° (SSW) 2,383 6.5 -12.8°
Maximum altitude 13:48:22 74° 276° (W) 863 4.4 -14.1°
Drops below altitude 10° 13:53:58 10° 1° (N) 2,480 6.8 -15.4°
Sets 13:56:27 0° 3° (N) 3,442 7.5 -16.0°
